This is the latest recevied weather packets stored in our database for station/object N8AMF. If no packets are shown the sender has not sent any weather packets the latest 10 day(s).
| Time | Temp. | Humidity | Pressure | Rain* | Wind** | Luminosity | Snow |
|---|---|---|---|---|---|---|---|
| 1777832706 | 16.67° C | 38% | 1012.7 hPa | 0 mm | - | 594 W/m² | - |
| 1777832403 | 16.67° C | 37% | 1012.9 hPa | 0 mm | - | 480 W/m² | - |
| 1777832100 | 16.67° C | 38% | 1012.9 hPa | 0 mm | - | 1036 W/m² | - |
| 1777831796 | 16.11° C | 38% | 1013.1 hPa | 0 mm | - | 1061 W/m² | - |
| 1777831494 | 16.11° C | 38% | 1013.1 hPa | 0 mm | - | 1041 W/m² | - |
| 1777831191 | 16.11° C | 39% | 1013.2 hPa | 0 mm | - | 237 W/m² | - |
| 1777830889 | 16.67° C | 38% | 1013 hPa | 0 mm | - | 284 W/m² | - |
| 1777830585 | 16.67° C | 37% | 1013.3 hPa | 0 mm | - | 1070 W/m² | - |
| 1777830284 | 16.67° C | 41% | 1013.3 hPa | 0 mm | - | 398 W/m² | - |
| 1777829983 | 16.67° C | 38% | 1013.2 hPa | 0 mm | - | 1053 W/m² | - |
| 1777829680 | 16.67° C | 40% | 1013.2 hPa | 0 mm | - | 1004 W/m² | - |
| 1777829377 | 16.67° C | 41% | 1013.7 hPa | 0 mm | - | 995 W/m² | - |
| 1777829074 | 16.67° C | 41% | 1013.6 hPa | 0 mm | - | 1008 W/m² | - |
| 1777828771 | 16.11° C | 40% | 1013.8 hPa | 0 mm | - | 172 W/m² | - |
| 1777828467 | 16.11° C | 43% | 1013.9 hPa | 0 mm | - | 967 W/m² | - |
| 1777828165 | 16.67° C | 42% | 1013.8 hPa | 0 mm | - | 961 W/m² | - |
| 1777827861 | 16.11° C | 41% | 1013.8 hPa | 0 mm | - | 962 W/m² | - |
| 1777827558 | 16.11° C | 46% | 1014 hPa | 0 mm | - | 957 W/m² | - |
| 1777827256 | 15.56° C | 43% | 1013.8 hPa | 0 mm | - | 954 W/m² | - |
| 1777826951 | 16.11° C | 44% | 1014 hPa | 0 mm | - | 950 W/m² | - |
| 1777826649 | 15.56° C | 43% | 1014 hPa | 0 mm | - | 946 W/m² | - |
| 1777826345 | 15.56° C | 42% | 1014.1 hPa | 0 mm | - | 941 W/m² | - |
| 1777826043 | 15.56° C | 43% | 1014.1 hPa | 0 mm | - | 934 W/m² | - |
| 1777825739 | 15.56° C | 40% | 1014.1 hPa | 0 mm | - | 927 W/m² | - |
| 1777825438 | 15.56° C | 41% | 1014.2 hPa | 0 mm | - | 923 W/m² | - |
* Rain latest hour (hover to see other rain measurements)
** Current wind speed in m/s (hover to see current wind gust speed)